Location: ??
(35.4627°N, 139.3695°E)
Time: 06:03:12
(UTC+00:00)

ADEOS Rocket - Pass Details

Date: 25 November 2020
Orbit: 859 x 1306 km, 98.7° (Epoch: 20 January)

Event Time Altitude Azimuth Distance (km) Brightness Sun altitude
Rises 18:50:22 0° 173° (S) 3,548 6.1 -31.8°
Reaches altitude 10° 18:52:42 10° 176° (S) 2,655 5.3 -31.3°
Enters shadow 18:55:34 31° 184° (S) 1,641 4.1 -30.7°
